OneWeb SL0663

operational
NORAD ID: 55823 Int'l Des: 2023-029 Owner: ONEWEBN Country: UK Constellation: oneweb
LEOCIRCULARPOLARONEWEB_TYPE

Über OneWeb SL0663

Beschreibung wird geladen...

Live-Position

3D-Globus wird geladen...

Nächste Überflüge

Höhenverlauf

Altitude vs Time

uPlot chart will show altitude changes over time

Zweizeiliger Elementsatz

1 55823U 23029AD 25258.71348045 .00000006 00000-0 -17270-4 0 9991
2 55823 87.9290 329.2032 0001441 95.6112 264.5186 13.20846269124915
Epoch: 15. Sept. 2025 • Age: 17 hours

Aktueller Status

Höhe 1188.3 km
Geschwindigkeit 7.26 km/s
Subsatellitenpunkt -16.88°S, 3.12°W
Startdatum 9. März 2023
Alter 2.5 years
Typ internet

Technische Details

Klassifizierung Payload
Masse 148.00 kg
Trockenmasse 140.00 kg
Gesamtmasse 148.00 kg
Länge 1.30 m
Durchmesser 1.00 m
Spannweite 5.00 m
Form Trapezoid+2 pan
Hersteller ONEWUS
Bus-Typ ARROW
Phasenstatus In Orbit
Besitzer/Staat ONEWEBN/UK

Große Konstellationen

Loading constellations...